Weather History for Newcastle Airport, United Kingdom

Change the Weather History Date:

Friday, August 30, 2013

  Actual Average Record
Temperature  
Mean Temperature 60 °F -  
Max Temperature 69 °F 60 °F 71 °F (2002)
Min Temperature 51 °F 47 °F 42 °F (2005)
Degree Days  
Heating Degree Days 5    
Growing Degree Days 10 (Base 50)    
Moisture  
Dew Point 56 °F    
Average Humidity 82    
Maximum Humidity 100    
Minimum Humidity 64    
Precipitation  
Precipitation 0.00 in - - ()
Sea Level Pressure  
Sea Level Pressure 29.96 in    
Wind  
Wind Speed 6 mph ()    
Max Wind Speed 21 mph    
Max Gust Speed -    
Visibility 6.2 miles    
Events Rain    
Averages and records for this station are not official NWS values.
T = Trace of Precipitation, MM = Missing Value Source: Averaged Metar Reports

Daily Weather History Graph

Daily Weather History Graph

Search for Another Location

Airport:

Trip Planner

Search our weather history database for the weather conditions in past years. The results will help you decide how hot, cold, wet, or windy it might be!

Date:

Astronomy

Aug. 30, 2013 Rise Set
Actual Time 6:09 AM BST 8:04 PM BST
Civil Twilight 5:30 AM BST 8:42 PM BST
Nautical Twilight 4:42 AM BST 9:30 PM BST
Astronomical Twilight 3:45 AM BST 10:26 PM BST
Moon 12:04 AM BST (8/30) 4:39 PM BST (8/30)
Length of Visible Light 15h 11m
Length of Day
13h 54m
Waning Crescent, 31% of the Moon is Illuminated
Aug 30
Waning Crescent
Sep 5
New
Sep 12
First Quarter
Sep 19
Full
Sep 27
Last Quarter

Hourly Weather History & Observations

Time (BST) Temp. Dew Point Humidity Pressure Visibility Wind Dir Wind Speed Gust Speed Precip Events Conditions
12:20 AM 60.8 °F 57.2 °F 88% 30.04 in 6.2 mi Calm Calm - N/A   Mostly Cloudy
12:50 AM 60.8 °F 57.2 °F 88% 30.04 in 6.2 mi Variable 2.3 mph - N/A   Mostly Cloudy
1:20 AM 59.0 °F 55.4 °F 88% 30.04 in 6.2 mi SW 2.3 mph - N/A   Mostly Cloudy
1:50 AM 59.0 °F 55.4 °F 88% 30.04 in 6.2 mi WSW 3.5 mph - N/A   Scattered Clouds
2:20 AM 55.4 °F 53.6 °F 94% 30.01 in 6.2 mi Calm Calm - N/A   Scattered Clouds
2:50 AM 55.4 °F 53.6 °F 94% 30.01 in 6.2 mi SW 2.3 mph - N/A   Scattered Clouds
3:20 AM 53.6 °F 53.6 °F 100% 30.01 in 6.2 mi Calm Calm - N/A   Scattered Clouds
3:50 AM 51.8 °F 51.8 °F 100% 30.01 in 6.2 mi Calm Calm - N/A   Scattered Clouds
4:20 AM 53.6 °F 53.6 °F 100% 30.01 in 6.2 mi Calm Calm - N/A   Scattered Clouds
4:50 AM 53.6 °F 53.6 °F 100% 30.01 in 6.2 mi Calm Calm - N/A   Scattered Clouds
5:20 AM 53.6 °F 53.6 °F 100% 29.98 in 6.2 mi South 3.5 mph - N/A   Mostly Cloudy
5:50 AM 53.6 °F 53.6 °F 100% 29.98 in 6.2 mi South 4.6 mph - N/A   Mostly Cloudy
6:20 AM 55.4 °F 55.4 °F 100% 29.98 in 6.2 mi South 3.5 mph - N/A   Mostly Cloudy
6:50 AM 55.4 °F 55.4 °F 100% 29.98 in 6.2 mi South 3.5 mph - N/A   Partly Cloudy
7:20 AM 57.2 °F 55.4 °F 94% 29.98 in 6.2 mi Variable 3.5 mph - N/A   Partly Cloudy
7:50 AM 59.0 °F 55.4 °F 88% 29.98 in 6.2 mi Variable 2.3 mph - N/A   Partly Cloudy
8:20 AM 60.8 °F 55.4 °F 82% 29.98 in 6.2 mi South 4.6 mph - N/A   Partly Cloudy
8:50 AM 62.6 °F 55.4 °F 77% 29.95 in 6.2 mi SSW 5.8 mph - N/A   Partly Cloudy
9:20 AM 64.4 °F 57.2 °F 77% 29.95 in 6.2 mi SW 8.1 mph - N/A   Partly Cloudy
9:50 AM 66.2 °F 57.2 °F 73% 29.95 in 6.2 mi WSW 12.7 mph - N/A   Partly Cloudy
10:20 AM 66.2 °F 57.2 °F 73% 29.95 in 6.2 mi WSW 17.3 mph - N/A   Partly Cloudy
10:50 AM 68.0 °F 55.4 °F 64% 29.95 in 6.2 mi WSW 15.0 mph - N/A   Partly Cloudy
11:20 AM 68.0 °F 55.4 °F 64% 29.95 in 6.2 mi WSW 12.7 mph - N/A   Partly Cloudy
11:50 AM 68.0 °F 57.2 °F 68% 29.95 in 6.2 mi West 10.4 mph - N/A   Partly Cloudy
12:20 PM 69.8 °F 57.2 °F 64% 29.92 in 6.2 mi WSW 9.2 mph - N/A   Partly Cloudy
12:50 PM 69.8 °F 57.2 °F 64% 29.92 in 6.2 mi SW 12.7 mph - N/A   Partly Cloudy
1:20 PM 69.8 °F 57.2 °F 64% 29.92 in 6.2 mi West 13.8 mph - N/A   Partly Cloudy
1:50 PM 69.8 °F 57.2 °F 64% 29.92 in 6.2 mi SW 11.5 mph - N/A   Partly Cloudy
2:20 PM 68.0 °F 57.2 °F 68% 29.92 in 6.2 mi SSW 13.8 mph - N/A   Scattered Clouds
2:50 PM 66.2 °F 59.0 °F 78% 29.89 in 6.2 mi SSW 13.8 mph - N/A   Scattered Clouds
3:20 PM 68.0 °F 59.0 °F 73% 29.89 in 6.2 mi SW 12.7 mph - N/A   Scattered Clouds
3:50 PM 68.0 °F 59.0 °F 73% 29.89 in 6.2 mi SW 11.5 mph - N/A   Mostly Cloudy
4:20 PM 66.2 °F 59.0 °F 78% 29.92 in 6.2 mi West 15.0 mph - N/A Rain Light Rain Showers
4:50 PM 66.2 °F 59.0 °F 78% 29.89 in 6.2 mi WSW 10.4 mph - N/A   Mostly Cloudy
5:20 PM 66.2 °F 59.0 °F 78% 29.89 in 6.2 mi WSW 9.2 mph - N/A   Mostly Cloudy
5:50 PM 66.2 °F 57.2 °F 73% 29.89 in 6.2 mi WSW 11.5 mph - N/A   Mostly Cloudy
6:20 PM 66.2 °F 59.0 °F 78% 29.89 in 6.2 mi WSW 15.0 mph - N/A   Mostly Cloudy
6:50 PM 64.4 °F 59.0 °F 83% 29.92 in 6.2 mi WSW 19.6 mph - N/A   Mostly Cloudy
7:50 PM 62.6 °F 57.2 °F 82% 29.92 in 6.2 mi West 11.5 mph - N/A   Partly Cloudy
8:20 PM 60.8 °F 59.0 °F 94% 29.95 in 6.2 mi West 12.7 mph - N/A   Scattered Clouds
8:50 PM 60.8 °F 55.4 °F 82% 29.98 in 6.2 mi West 15.0 mph - N/A   Partly Cloudy
9:20 PM 59.0 °F 55.4 °F 88% 29.98 in 6.2 mi West 15.0 mph - N/A   Partly Cloudy
9:50 PM 59.0 °F 55.4 °F 88% 29.98 in 6.2 mi West 18.4 mph - N/A   Partly Cloudy
10:20 PM 57.2 °F 53.6 °F 88% 30.01 in 6.2 mi West 20.7 mph - N/A   Partly Cloudy
10:50 PM 55.4 °F 46.4 °F 72% 30.04 in 6.2 mi WNW 18.4 mph - N/A   Partly Cloudy
11:50 PM 51.8 °F 46.4 °F 82% 30.06 in 6.2 mi West 12.7 mph - N/A   Partly Cloudy